TimeCST,TemperatureF,Dew PointF,Humidity,Sea Level PressureIn,VisibilityMPH,Wind Direction,Wind SpeedMPH,Gust SpeedMPH,PrecipitationIn,Events,Conditions,WindDirDegrees,DateUTC
12:53 AM,6.1,3.0,87,30.27,10.0,SW,9.2,-,N/A,,Clear,230,2013-01-04 06:53:00
1:53 AM,5.0,1.9,87,30.28,10.0,SW,6.9,-,N/A,,Clear,220,2013-01-04 07:53:00
2:53 AM,6.1,3.0,87,30.27,10.0,SW,11.5,-,N/A,,Clear,220,2013-01-04 08:53:00
3:53 AM,7.0,3.9,87,30.25,9.0,SW,11.5,-,N/A,,Clear,230,2013-01-04 09:53:00
4:53 AM,8.1,5.0,87,30.22,9.0,SW,10.4,-,N/A,,Clear,220,2013-01-04 10:53:00
5:53 AM,10.4,6.8,85,30.15,9.0,WSW,13.8,-,N/A,,Clear,240,2013-01-04 11:53:00
6:53 AM,10.9,8.1,88,30.22,9.0,SW,15.0,-,N/A,,Clear,230,2013-01-04 12:53:00
7:53 AM,12.0,9.0,88,30.23,8.0,SW,11.5,-,N/A,,Clear,220,2013-01-04 13:53:00
8:53 AM,14.0,10.0,84,30.23,8.0,SW,12.7,-,N/A,,Clear,230,2013-01-04 14:53:00
9:53 AM,18.0,14.0,84,30.22,9.0,SW,16.1,-,N/A,,Clear,230,2013-01-04 15:53:00
10:53 AM,21.9,16.0,78,30.21,10.0,WSW,20.7,-,N/A,,Clear,240,2013-01-04 16:53:00
11:53 AM,25.0,17.1,72,30.20,10.0,WSW,16.1,25.3,N/A,,Clear,250,2013-01-04 17:53:00
12:53 PM,27.0,19.0,72,30.17,10.0,WSW,17.3,-,N/A,,Clear,250,2013-01-04 18:53:00
1:53 PM,28.0,19.9,72,30.18,10.0,WSW,15.0,-,N/A,,Clear,240,2013-01-04 19:53:00
2:53 PM,28.0,19.0,69,30.19,10.0,WSW,11.5,-,N/A,,Clear,250,2013-01-04 20:53:00
3:53 PM,27.0,19.0,72,30.20,10.0,WSW,10.4,-,N/A,,Clear,250,2013-01-04 21:53:00
4:53 PM,24.1,17.1,75,30.22,10.0,SW,6.9,-,N/A,,Clear,230,2013-01-04 22:53:00
5:53 PM,19.9,15.1,81,30.23,10.0,WSW,9.2,-,N/A,,Clear,240,2013-01-04 23:53:00
6:53 PM,19.9,16.0,85,30.25,10.0,Calm,Calm,-,N/A,,Clear,0,2013-01-05 00:53:00
7:53 PM,19.9,15.1,81,30.25,10.0,South,4.6,-,N/A,,Clear,190,2013-01-05 01:53:00
8:53 PM,19.0,15.1,85,30.24,10.0,SSW,5.8,-,N/A,,Clear,210,2013-01-05 02:53:00
9:53 PM,17.1,14.0,88,30.24,9.0,SW,5.8,-,N/A,,Clear,220,2013-01-05 03:53:00
10:53 PM,16.0,12.9,88,30.22,8.0,Calm,Calm,-,N/A,,Clear,0,2013-01-05 04:53:00
11:53 PM,12.9,10.0,88,30.22,6.0,SSW,4.6,-,N/A,,Clear,210,2013-01-05 05:53:00